SKW4213 KDEN-KLAS

Flight info

Callsign SKW4213
Flight time N/A
Altitude 32000
Route CONNR7 WERNR ZAKRY CHESZ GGAPP CHOWW4
Aircraft E75L/M-SDE3GILORVW/S

Departure

Time 2026-05-07 23:27
Airport Denver International Airport (KDEN)

Arrival

Time N/A
Airport Harry Reid International Airport (KLAS)
Time Latitude Longitude Altitude Speed Heading
2026-05-07 23:04 39.85334 -104.67158 5384 ft 0 kts
2026-05-07 23:16 39.85323 -104.67158 5384 ft 3 kts
2026-05-07 23:16 39.85305 -104.67159 5381 ft 2 kts
2026-05-07 23:16 39.85287 -104.67161 5383 ft 3 kts 12°
2026-05-07 23:17 39.85269 -104.67171 5384 ft 3 kts 38°
2026-05-07 23:17 39.85258 -104.67191 5384 ft 3 kts 78°
2026-05-07 23:17 39.85259 -104.67216 5382 ft 3 kts 108°
2026-05-07 23:17 39.85268 -104.67237 5382 ft 3 kts 142°
2026-05-07 23:18 39.85277 -104.67243 5383 ft 3 kts 234°
2026-05-07 23:18 39.85277 -104.67241 5382 ft 2 kts 271°
2026-05-07 23:18 39.85277 -104.67219 5384 ft 1 kts 271°
2026-05-07 23:18 39.85277 -104.67216 5384 ft 0 kts 271°
2026-05-07 23:21 39.85277 -104.67217 5384 ft 0 kts 271°
2026-05-07 23:22 39.85277 -104.67245 5384 ft 6 kts 271°
2026-05-07 23:22 39.85279 -104.67331 5384 ft 13 kts 272°
2026-05-07 23:22 39.85245 -104.67452 5384 ft 17 kts 251°
2026-05-07 23:22 39.85237 -104.67624 5384 ft 22 kts 270°
2026-05-07 23:23 39.85240 -104.67843 5384 ft 27 kts 271°
2026-05-07 23:23 39.85248 -104.68081 5384 ft 25 kts 274°
2026-05-07 23:23 39.85217 -104.68297 5386 ft 24 kts 253°
2026-05-07 23:23 39.85210 -104.68550 5368 ft 32 kts 278°
2026-05-07 23:24 39.85210 -104.68769 5359 ft 10 kts 270°
2026-05-07 23:24 39.85207 -104.68905 5354 ft 21 kts 269°
2026-05-07 23:24 39.85204 -104.69130 5346 ft 28 kts 269°
2026-05-07 23:24 39.85204 -104.69408 5336 ft 31 kts 270°
2026-05-07 23:25 39.85207 -104.69612 5331 ft 15 kts 282°
2026-05-07 23:25 39.85299 -104.69657 5331 ft 15 kts 13°
2026-05-07 23:25 39.85387 -104.69658 5335 ft 11 kts
2026-05-07 23:25 39.85399 -104.69657 5333 ft 1 kts
2026-05-07 23:26 39.85522 -104.69656 5339 ft 45 kts
2026-05-07 23:26 39.86030 -104.69651 5336 ft 100 kts
2026-05-07 23:26 39.86900 -104.69651 5336 ft 148 kts
2026-05-07 23:26 39.87992 -104.69589 5688 ft 162 kts
2026-05-07 23:27 39.90079 -104.70372 6640 ft 174 kts 290°
2026-05-07 23:27 39.90049 -104.71969 7152 ft 190 kts 253°
2026-05-07 23:27 39.89532 -104.73631 7822 ft 208 kts 252°
2026-05-07 23:28 39.88893 -104.75407 8355 ft 225 kts 242°
2026-05-07 23:28 39.88023 -104.77176 8283 ft 242 kts 243°
2026-05-07 23:28 39.87164 -104.79152 8776 ft 258 kts 247°
2026-05-07 23:28 39.86409 -104.81334 9321 ft 271 kts 251°
2026-05-07 23:29 39.85711 -104.83644 9975 ft 276 kts 252°
2026-05-07 23:29 39.85062 -104.86051 10411 ft 289 kts 257°
2026-05-07 23:29 39.84542 -104.88636 10828 ft 300 kts 258°
2026-05-07 23:29 39.84029 -104.91284 11498 ft 302 kts 259°
2026-05-07 23:30 39.83532 -104.93932 12135 ft 308 kts 259°
2026-05-07 23:30 39.83036 -104.96650 12873 ft 310 kts 260°
2026-05-07 23:30 39.82520 -104.99394 13636 ft 313 kts 258°
2026-05-07 23:30 39.81969 -105.02155 14332 ft 318 kts 258°
2026-05-07 23:31 39.81406 -105.04950 15023 ft 321 kts 258°
2026-05-07 23:31 39.80839 -105.07766 15703 ft 324 kts 258°
2026-05-07 23:31 39.80264 -105.10616 16392 ft 327 kts 258°
2026-05-07 23:31 39.79685 -105.13490 16795 ft 328 kts 259°
2026-05-07 23:32 39.79104 -105.16370 16904 ft 331 kts 259°
2026-05-07 23:32 39.78518 -105.19275 17520 ft 332 kts 258°
2026-05-07 23:32 39.77939 -105.22140 18199 ft 334 kts 259°
2026-05-07 23:32 39.77344 -105.25080 18836 ft 337 kts 259°
2026-05-07 23:33 39.76743 -105.28038 19471 ft 340 kts 259°
2026-05-07 23:33 39.76133 -105.31027 20090 ft 345 kts 259°
2026-05-07 23:33 39.75516 -105.34057 20718 ft 348 kts 259°
2026-05-07 23:33 39.74894 -105.37111 21367 ft 352 kts 259°
2026-05-07 23:34 39.74261 -105.40196 21989 ft 355 kts 259°
2026-05-07 23:34 39.73626 -105.43308 22583 ft 358 kts 259°
2026-05-07 23:34 39.72989 -105.46407 23175 ft 361 kts 259°
2026-05-07 23:34 39.72338 -105.49574 23729 ft 365 kts 259°
2026-05-07 23:35 39.71671 -105.52764 24289 ft 367 kts 259°
2026-05-07 23:35 39.71021 -105.55973 24823 ft 369 kts 259°
2026-05-07 23:35 39.70363 -105.59197 25370 ft 370 kts 259°
2026-05-07 23:35 39.69699 -105.62443 25916 ft 373 kts 259°
2026-05-07 23:36 39.69040 -105.65703 26388 ft 375 kts 262°
2026-05-07 23:36 39.68545 -105.69029 26827 ft 377 kts 263°
2026-05-07 23:36 39.68078 -105.72338 27304 ft 379 kts 264°
2026-05-07 23:36 39.67619 -105.75712 27753 ft 381 kts 264°
2026-05-07 23:37 39.67159 -105.79108 28213 ft 384 kts 264°
2026-05-07 23:37 39.66692 -105.82533 28631 ft 386 kts 264°
2026-05-07 23:37 39.66221 -105.85973 29073 ft 388 kts 264°
2026-05-07 23:37 39.65746 -105.89435 29487 ft 391 kts 264°
2026-05-07 23:38 39.65267 -105.92919 29878 ft 394 kts 264°
2026-05-07 23:38 39.64780 -105.96464 30000 ft 402 kts 264°
2026-05-07 23:38 39.64286 -106.00035 30473 ft 401 kts 264°
2026-05-07 23:38 39.63788 -106.03597 30938 ft 400 kts 265°
2026-05-07 23:39 39.63305 -106.07095 31384 ft 399 kts 265°
2026-05-07 23:39 39.62815 -106.10622 31821 ft 397 kts 265°
2026-05-07 23:39 39.62323 -106.14150 31996 ft 396 kts 265°
2026-05-07 23:39 39.61832 -106.17660 32057 ft 396 kts 265°
2026-05-07 23:40 39.60838 -106.24750 32090 ft 401 kts 265°
2026-05-07 23:40 39.59837 -106.31856 32066 ft 400 kts 265°
2026-05-07 23:41 39.58831 -106.38957 32061 ft 401 kts 265°
2026-05-07 23:41 39.57825 -106.46023 32082 ft 401 kts 265°
2026-05-07 23:42 39.56824 -106.53135 32071 ft 402 kts 266°
2026-05-07 23:42 39.55794 -106.60241 32075 ft 401 kts 265°
2026-05-07 23:43 39.54524 -106.67312 32079 ft 405 kts 261°
2026-05-07 23:43 39.52588 -106.74182 32074 ft 411 kts 255°
2026-05-07 23:44 39.50459 -106.80988 31984 ft 410 kts 254°
2026-05-07 23:44 39.48307 -106.87828 32097 ft 411 kts 254°
2026-05-07 23:45 39.46146 -106.94676 32079 ft 411 kts 254°
2026-05-07 23:45 39.44002 -107.01459 32085 ft 411 kts 254°
2026-05-07 23:46 39.41829 -107.08322 32052 ft 414 kts 254°
2026-05-07 23:46 39.39643 -107.15201 32048 ft 414 kts 254°
2026-05-07 23:47 39.37367 -107.22053 32004 ft 416 kts 251°
2026-05-07 23:47 39.34885 -107.28813 32014 ft 417 kts 251°
2026-05-07 23:48 39.32396 -107.35516 32006 ft 416 kts 251°
2026-05-07 23:48 39.29887 -107.42264 31998 ft 417 kts 251°
2026-05-07 23:49 39.27369 -107.49020 32006 ft 418 kts 251°
2026-05-07 23:49 39.24848 -107.55773 32009 ft 417 kts 251°
2026-05-07 23:50 39.22342 -107.62469 32018 ft 418 kts 251°
2026-05-07 23:50 39.19815 -107.69210 32014 ft 417 kts 251°
2026-05-07 23:51 39.17280 -107.75952 32001 ft 419 kts 250°
2026-05-07 23:51 39.14736 -107.82705 32009 ft 419 kts 250°
2026-05-07 23:52 39.12192 -107.89444 32007 ft 419 kts 250°
2026-05-07 23:52 39.09658 -107.96141 32003 ft 418 kts 250°
2026-05-07 23:53 39.07106 -108.02872 32000 ft 419 kts 250°
2026-05-07 23:53 39.04548 -108.09601 32000 ft 419 kts 250°
2026-05-07 23:54 39.01974 -108.16358 32014 ft 421 kts 250°
2026-05-07 23:54 38.99393 -108.23116 32007 ft 421 kts 250°
2026-05-07 23:55 38.96832 -108.29810 32008 ft 420 kts 250°
2026-05-07 23:55 38.94242 -108.36564 32022 ft 421 kts 250°
2026-05-07 23:56 38.91651 -108.43305 31993 ft 421 kts 250°
2026-05-07 23:56 38.89044 -108.50074 32002 ft 423 kts 250°
2026-05-07 23:57 38.86430 -108.56841 31981 ft 423 kts 250°
2026-05-07 23:57 38.83831 -108.63559 31996 ft 423 kts 250°
2026-05-07 23:58 38.81207 -108.70325 31998 ft 423 kts 250°
2026-05-07 23:58 38.78580 -108.77084 31994 ft 424 kts 250°
2026-05-07 23:59 38.75943 -108.83854 32014 ft 425 kts 250°
2026-05-07 23:59 38.73321 -108.90573 32021 ft 425 kts 250°
2026-05-08 00:00 38.70676 -108.97333 31994 ft 425 kts 250°
2026-05-08 00:00 38.68026 -109.04089 31992 ft 424 kts 249°
2026-05-08 00:01 38.65368 -109.10864 32016 ft 428 kts 249°
2026-05-08 00:01 38.62696 -109.17634 31988 ft 429 kts 249°
2026-05-08 00:02 38.60006 -109.24454 31996 ft 430 kts 249°
2026-05-08 00:02 38.57313 -109.31262 31989 ft 429 kts 249°
2026-05-08 00:03 38.55070 -109.36919 31982 ft 429 kts 249°
2026-05-08 00:03 38.52366 -109.43726 31974 ft 429 kts 249°
2026-05-08 00:04 38.49209 -109.51657 31990 ft 433 kts 248°
2026-05-08 00:04 38.46479 -109.58494 31956 ft 432 kts 248°
2026-05-08 00:05 38.44211 -109.64167 31972 ft 432 kts 248°
2026-05-08 00:05 38.41476 -109.70992 31946 ft 432 kts 248°
2026-05-08 00:06 38.38743 -109.77795 31957 ft 432 kts 248°
2026-05-08 00:06 38.35996 -109.84624 31936 ft 433 kts 248°
2026-05-08 00:07 38.33255 -109.91415 31948 ft 434 kts 248°
2026-05-08 00:07 38.30495 -109.98244 31924 ft 433 kts 248°
2026-05-08 00:08 38.27820 -110.05111 31938 ft 432 kts 251°
2026-05-08 00:08 38.25374 -110.12122 31948 ft 435 kts 251°
2026-05-08 00:09 38.22951 -110.19123 31947 ft 436 kts 250°
2026-05-08 00:09 38.20721 -110.25537 31910 ft 406 kts 251°
2026-05-08 00:10 38.19610 -110.28745 31872 ft 388 kts 251°
2026-05-08 00:10 38.18543 -110.31810 31857 ft 371 kts 251°
2026-05-08 00:10 38.17523 -110.34740 31837 ft 355 kts 251°
2026-05-08 00:10 38.16543 -110.37555 31818 ft 342 kts 252°
2026-05-08 00:11 38.14612 -110.43097 31889 ft 348 kts 251°
2026-05-08 00:11 38.12650 -110.48690 31941 ft 349 kts 251°
2026-05-08 00:12 38.11282 -110.52597 31959 ft 349 kts 252°
2026-05-08 00:16 38.10266 -110.55492 31949 ft 349 kts 252°
2026-05-08 00:16 38.08289 -110.61114 31952 ft 349 kts 252°
2026-05-08 00:17 38.06268 -110.66868 31982 ft 369 kts 251°
2026-05-08 00:17 38.05201 -110.69890 31997 ft 381 kts 251°
2026-05-08 00:17 38.04101 -110.73002 32001 ft 393 kts 251°
2026-05-08 00:18 38.01807 -110.79492 31999 ft 411 kts 251°
2026-05-08 00:18 37.99451 -110.86134 31962 ft 413 kts 250°
2026-05-08 00:19 37.97113 -110.92721 31975 ft 412 kts 250°
2026-05-08 00:19 37.94754 -110.99352 31961 ft 413 kts 250°
2026-05-08 00:20 37.92395 -111.05969 31965 ft 412 kts 250°
2026-05-08 00:20 37.90027 -111.12592 31977 ft 413 kts 250°
2026-05-08 00:21 37.87653 -111.19220 31976 ft 414 kts 250°
2026-05-08 00:21 37.85288 -111.25806 31966 ft 413 kts 250°
2026-05-08 00:22 37.82907 -111.32425 31986 ft 414 kts 250°
2026-05-08 00:22 37.80518 -111.39063 31984 ft 418 kts 249°
2026-05-08 00:23 37.78096 -111.45746 31986 ft 417 kts 249°
2026-05-08 00:23 37.75682 -111.52413 31995 ft 417 kts 249°
2026-05-08 00:24 37.73280 -111.59033 32003 ft 417 kts 249°
2026-05-08 00:24 37.70856 -111.65696 31986 ft 418 kts 249°
2026-05-08 00:25 37.68428 -111.72355 31995 ft 417 kts 249°
2026-05-08 00:25 37.65998 -111.79006 32056 ft 417 kts 249°
2026-05-08 00:26 37.63563 -111.85656 32088 ft 417 kts 249°
2026-05-08 00:26 37.61140 -111.92255 32103 ft 417 kts 249°
2026-05-08 00:27 37.58701 -111.98892 32147 ft 417 kts 249°
2026-05-08 00:27 37.56256 -112.05523 32137 ft 417 kts 249°
2026-05-08 00:28 37.53753 -112.12119 32140 ft 418 kts 247°
2026-05-08 00:28 37.50768 -112.18397 32096 ft 422 kts 241°
2026-05-08 00:29 37.47572 -112.24594 32091 ft 422 kts 240°
2026-05-08 00:29 37.44364 -112.30783 32038 ft 422 kts 240°
2026-05-08 00:30 37.41152 -112.36969 32013 ft 422 kts 240°
2026-05-08 00:30 37.37942 -112.43146 31965 ft 422 kts 240°
2026-05-08 00:31 37.34732 -112.49292 31992 ft 423 kts 240°
2026-05-08 00:31 37.31504 -112.55481 31976 ft 423 kts 240°
2026-05-08 00:32 37.28279 -112.61663 31994 ft 423 kts 241°
2026-05-08 00:32 37.25039 -112.67838 31976 ft 423 kts 241°
2026-05-08 00:33 37.21822 -112.73959 31978 ft 423 kts 241°
2026-05-08 00:33 37.20207 -112.77031 31386 ft 422 kts 241°
2026-05-08 00:33 37.18594 -112.80092 30804 ft 419 kts 241°
2026-05-08 00:34 37.16998 -112.83124 30268 ft 415 kts 241°
2026-05-08 00:34 37.15413 -112.86132 29688 ft 411 kts 241°
2026-05-08 00:34 37.13846 -112.89103 29107 ft 407 kts 241°
2026-05-08 00:34 37.12292 -112.92045 28552 ft 403 kts 241°
2026-05-08 00:35 37.10753 -112.94956 28003 ft 399 kts 241°
2026-05-08 00:35 37.09230 -112.97835 27504 ft 394 kts 241°
2026-05-08 00:35 37.07722 -113.00686 26983 ft 391 kts 240°
2026-05-08 00:35 37.06243 -113.03474 26460 ft 388 kts 241°
2026-05-08 00:36 37.04758 -113.06275 25954 ft 384 kts 240°
2026-05-08 00:36 37.03289 -113.09044 25440 ft 381 kts 240°
2026-05-08 00:36 37.01827 -113.11793 24885 ft 379 kts 240°
2026-05-08 00:36 37.00370 -113.14536 24330 ft 378 kts 240°
2026-05-08 00:37 36.98918 -113.17266 24181 ft 378 kts 240°
2026-05-08 00:37 36.97465 -113.19992 24114 ft 376 kts 240°
2026-05-08 00:37 36.96018 -113.22709 24058 ft 374 kts 240°
2026-05-08 00:38 36.93148 -113.28088 24008 ft 375 kts 240°
2026-05-08 00:38 36.91700 -113.30798 23985 ft 375 kts 240°
2026-05-08 00:38 36.90254 -113.33503 23966 ft 375 kts 240°
2026-05-08 00:38 36.88803 -113.36213 23954 ft 375 kts 240°
2026-05-08 00:39 36.87354 -113.38920 23930 ft 375 kts 240°
2026-05-08 00:39 36.85903 -113.41627 23911 ft 375 kts 240°
2026-05-08 00:39 36.84449 -113.44338 23923 ft 376 kts 240°
2026-05-08 00:39 36.82988 -113.47049 23928 ft 377 kts 240°
2026-05-08 00:40 36.81534 -113.49759 23927 ft 376 kts 240°
2026-05-08 00:40 36.80099 -113.52443 23921 ft 377 kts 240°
2026-05-08 00:40 36.78648 -113.55151 23700 ft 375 kts 240°
2026-05-08 00:40 36.77197 -113.57856 23139 ft 374 kts 240°
2026-05-08 00:41 36.75760 -113.60533 22620 ft 369 kts 240°
2026-05-08 00:41 36.74334 -113.63186 22084 ft 367 kts 240°
2026-05-08 00:41 36.72922 -113.65813 21586 ft 363 kts 240°
2026-05-08 00:41 36.71521 -113.68415 21090 ft 360 kts 240°
2026-05-08 00:42 36.70134 -113.70994 20608 ft 357 kts 240°
2026-05-08 00:42 36.68757 -113.73548 20135 ft 353 kts 240°
2026-05-08 00:42 36.67393 -113.76079 19651 ft 350 kts 240°
2026-05-08 00:42 36.66038 -113.78589 19187 ft 347 kts 240°
2026-05-08 00:43 36.64712 -113.81043 18737 ft 346 kts 240°
2026-05-08 00:43 36.63377 -113.83514 18304 ft 342 kts 240°
2026-05-08 00:43 36.62055 -113.85957 17817 ft 340 kts 240°
2026-05-08 00:43 36.60747 -113.88394 17314 ft 337 kts 240°
2026-05-08 00:44 36.59460 -113.90807 16983 ft 335 kts 238°
2026-05-08 00:44 36.58062 -113.93135 16802 ft 335 kts 236°
2026-05-08 00:44 36.56650 -113.95432 16526 ft 334 kts 236°
2026-05-08 00:44 36.55236 -113.97713 16222 ft 333 kts 236°
2026-05-08 00:45 36.53825 -113.99990 15985 ft 332 kts 236°
2026-05-08 00:45 36.52442 -114.02215 15883 ft 329 kts 236°
2026-05-08 00:45 36.51046 -114.04464 15852 ft 330 kts 236°
2026-05-08 00:45 36.49644 -114.06722 15844 ft 330 kts 236°
2026-05-08 00:46 36.48243 -114.08976 15835 ft 330 kts 235°
2026-05-08 00:46 36.46839 -114.11232 15845 ft 330 kts 235°
2026-05-08 00:46 36.45437 -114.13485 15827 ft 330 kts 235°
2026-05-08 00:46 36.44029 -114.15747 15837 ft 329 kts 235°
2026-05-08 00:47 36.42630 -114.17992 15835 ft 330 kts 235°
2026-05-08 00:47 36.41264 -114.20228 15821 ft 330 kts 236°
2026-05-08 00:47 36.39847 -114.22465 15824 ft 330 kts 235°
2026-05-08 00:47 36.38424 -114.24700 15830 ft 330 kts 235°
2026-05-08 00:48 36.37000 -114.26937 15822 ft 330 kts 235°
2026-05-08 00:48 36.35576 -114.29171 15823 ft 330 kts 235°
2026-05-08 00:48 36.34152 -114.31404 15818 ft 330 kts 234°
2026-05-08 00:48 36.32728 -114.33638 15811 ft 330 kts 235°
2026-05-08 00:49 36.31304 -114.35869 15816 ft 330 kts 235°
2026-05-08 00:49 36.29877 -114.38104 15818 ft 331 kts 234°
2026-05-08 00:49 36.28448 -114.40339 15807 ft 331 kts 234°
2026-05-08 00:49 36.27054 -114.42564 15800 ft 330 kts 234°
2026-05-08 00:50 36.25603 -114.44790 15810 ft 332 kts 233°
2026-05-08 00:50 36.24157 -114.47010 15808 ft 332 kts 234°
2026-05-08 00:50 36.22704 -114.49237 15819 ft 332 kts 234°
2026-05-08 00:50 36.21256 -114.51459 15814 ft 332 kts 234°
2026-05-08 00:51 36.19802 -114.53685 15802 ft 333 kts 234°
2026-05-08 00:51 36.18352 -114.55908 15812 ft 333 kts 234°
2026-05-08 00:51 36.16898 -114.58138 15825 ft 333 kts 233°
2026-05-08 00:51 36.15440 -114.60360 15840 ft 332 kts 233°
2026-05-08 00:52 36.14004 -114.62553 15840 ft 332 kts 234°
2026-05-08 00:52 36.12553 -114.64771 15850 ft 332 kts 233°
2026-05-08 00:52 36.11099 -114.66989 15805 ft 331 kts 233°
2026-05-08 00:52 36.09674 -114.69225 15331 ft 329 kts 240°
2026-05-08 00:53 36.08869 -114.71807 14869 ft 319 kts 266°
2026-05-08 00:53 36.09052 -114.74474 14424 ft 310 kts 292°
2026-05-08 00:53 36.10102 -114.76750 13988 ft 303 kts 308°
2026-05-08 00:53 36.11344 -114.78851 13533 ft 302 kts 307°
2026-05-08 00:54 36.12625 -114.80899 13070 ft 299 kts 312°
2026-05-08 00:54 36.13983 -114.82836 12597 ft 297 kts 313°
2026-05-08 00:54 36.15309 -114.84779 12169 ft 295 kts 310°
2026-05-08 00:54 36.16515 -114.86775 11749 ft 293 kts 306°
2026-05-08 00:55 36.17513 -114.88959 11312 ft 293 kts 290°
2026-05-08 00:55 36.17673 -114.91461 10899 ft 297 kts 262°
2026-05-08 00:55 36.16845 -114.93792 10494 ft 301 kts 234°
2026-05-08 00:55 36.15212 -114.95403 10090 ft 306 kts 206°
2026-05-08 00:56 36.13132 -114.95923 9670 ft 309 kts 179°
2026-05-08 00:56 36.11069 -114.95228 9239 ft 310 kts 152°
2026-05-08 00:56 36.09243 -114.93862 8892 ft 304 kts 153°
2026-05-08 00:56 36.07267 -114.93138 8475 ft 300 kts 181°
2026-05-08 00:57 36.05268 -114.93632 8085 ft 291 kts 210°
2026-05-08 00:57 36.03620 -114.95036 7679 ft 286 kts 221°
2026-05-08 00:57 36.02283 -114.96811 7262 ft 280 kts 244°
2026-05-08 00:57 36.01760 -114.99085 6938 ft 275 kts 265°
2026-05-08 00:58 36.01665 -115.01428 6557 ft 273 kts 271°
2026-05-08 00:58 36.02062 -115.03721 6086 ft 276 kts 294°
2026-05-08 00:58 36.03275 -115.05541 5679 ft 279 kts 325°
2026-05-08 00:58 36.05075 -115.06387 5258 ft 280 kts 350°
2026-05-08 00:59 36.06991 -115.06629 5058 ft 284 kts 355°
2026-05-08 00:59 36.08943 -115.06421 4981 ft 283 kts 19°
2026-05-08 00:59 36.10552 -115.05118 4945 ft 273 kts 49°
2026-05-08 00:59 36.11374 -115.03105 4909 ft 258 kts 78°
2026-05-08 01:00 36.11624 -115.00968 4900 ft 247 kts 84°
2026-05-08 01:00 36.11756 -114.98894 4835 ft 238 kts 85°
2026-05-08 01:00 36.11852 -114.96866 4840 ft 236 kts 86°
2026-05-08 01:00 36.11859 -114.94825 4846 ft 237 kts 88°
2026-05-08 01:01 36.12345 -114.92898 4873 ft 238 kts 57°
2026-05-08 01:01 36.12984 -114.91027 4852 ft 239 kts 83°
2026-05-08 01:01 36.12728 -114.89059 4844 ft 238 kts 118°